www.pogodaiklimat.ru

Погода и климат >> Архив погоды >> Индия >> Mangalore Airport


ПОГОДА в Mangalore Airport

  • Прогноз погоды в Mangalore Airport
  • Монитор погоды в Mangalore Airport
  • Климат города

АРХИВ ПОГОДЫ в Mangalore Airport

Время (UTC), дата Ветер
(напр.,м/с)
 
Видим.   Явления Облачность Т
(С)
Тd
(С)
f
(%)
Тe
(С)
Тes
(С)
Комфортность P
(гПа)
Po
(гПа)
Тmin
(С)
Tmax
(С)
R
(мм)
R24
(мм)
S
(см)
21 10.10 штиль 0 4000 м дымка 8/5 90 м
[Cb calv Ac trans Ci fib]
+25.6 +24.1 91 +35 +35 очень
душно
1007.6 996.1
00 11.10 В 2 4000 м дымка 5/4 90 м
[St Ac trans]
+25.0 +23.5 91 +34 +34 очень
душно
1007.9 996.4
03 11.10 СВ 2 4000 м дымка 6/3 120 м
[St Ci fib]
+27.8 +24.6 83 +39 +42 очень
душно
1009.6 998.1 +24.0 +31.0
06 11.10 С 3 4000 м мгла 8/5 360 м
[Cu Sc Ci fib]
+31.6 +24.8 67 +45 +51 опасность
перегрева
1008.9 997.6
09 11.10 З 5 4000 м мгла {туман} 5/4 450 м
[Cu Sc Ci fib]
+32.0 +25.2 67 +46 +50 опасность
перегрева
1006.1 994.8
12 11.10 З 3 4000 м мгла {туман} 4/1 450 м
[Sc Ci fib]
+29.6 +26.2 82 +45 +46 опасность
перегрева
1006.8 995.4 +32.4
15 11.10 С 2 4000 м дымка 6/4 450 м
[Sc Ci fib]
+28.0 +24.9 83 +40 +40 очень
душно
1009.3 997.8
18 11.10 С 2 4000 м дымка 6/4 450 м
[Sc Ci fib]
+27.6 +25.0 86 +40 +40 очень
душно
1009.9 998.4
21 11.10 штиль 0 4000 м дымка 5/3 450 м
[Sc Ci fib]
+26.4 +24.7 90 +37 +37 очень
душно
1008.0 996.5
00 12.10 В 2 2000 м дымка {туман} 5/4 240 м
[St Ci fib]
+25.6 +24.4 93 +36 +36 очень
душно
1008.6 997.1
03 12.10 В 2 2000 м дымка {туман} 5/3 90 м
[St Ci fib]
+27.4 +25.6 90 +40 +43 очень
душно
1010.6 999.1 +25.0 +32.4
06 12.10 С 4 4000 м 5/4 450 м
[Cu Sc Ci fib]
+31.4 +24.6 67 +44 +51 опасность
перегрева
1009.5 998.2
09 12.10 З 5 4000 м мгла 5/4 450 м
[Sc Ci fib]
+32.2 +25.1 66 +46 +51 опасность
перегрева
1006.9 995.7
12 12.10 СЗ 3 4000 м гроза без осадков 8/5 450 м
[Cb cap Ac trans Ci fib]
+29.6 +25.4 78 +43 +44 опасность
перегрева
1007.3 996.0 +32.2
15 12.10 штиль 0 4000 м дымка 8/3 360 м
[Sc Ac trans Ci fib]
+27.6 +23.8 80 +38 +38 очень
душно
1009.7 998.2
18 12.10 штиль 0 4000 м дымка 8/3 360 м
[Sc Ac trans Ci fib]
+26.4 +23.2 83 +36 +36 очень
душно
1010.3 998.8
21 12.10 В 2 4000 м дымка 8/1 360 м
[Sc Ac trans Ci fib]
+25.4 +23.0 87 +34 +34 очень
душно
1008.9 997.4
00 13.10 штиль 0 4000 м дымка 6/3 360 м
[Sc Ac trans Ci fib]
+25.0 +22.9 88 +33 +33 очень
душно
1009.9 998.3
03 13.10 В 3 4000 м дымка 6/3 450 м
[Sc Ac trans Ci fib]
+27.0 +23.5 81 +37 +39 очень
душно
1011.6 1000.1 +24.3 +32.2
06 13.10 ЮЗ 2 4000 м дымка 6/4 450 м
[Sc Ac trans Ci fib]
+30.4 +25.0 73 +44 +52 опасность
перегрева
1011.1 999.7
09 13.10 З 5 4000 м дымка 6/4 450 м
[Sc Ci fib]
+31.0 +25.7 73 +46 +50 опасность
перегрева
1008.3 997.0
12 13.10 З 2 4000 м дымка 9/4 360 м
[Sc Ac trans Ci fib]
+29.0 +25.3 80 +42 +42 опасность
перегрева
1009.2 997.8 +32.1
15 13.10 Ю 3 4000 м гроза, ливневой дождь 9/4 240 м
[Cb cap Ac trans Ci fib]
+24.8 +22.4 87 +32 +32 очень
душно
1012.1 1000.5 0.2
18 13.10 В 3 4000 м дымка {гроза, дождь} 9/5 180 м
[Cb cap Ac trans Ci fib]
+24.0 +22.5 91 +31 +31 очень
душно
1012.2 1000.6 12
21 13.10 СВ 2 4000 м дымка {туман} 9/4 450 м
[Cu Sc Ac trans Ci fib]
+24.2 +22.4 90 +32 +32 очень
душно
1010.9 999.3 12
00 14.10 штиль 0 2000 м дымка 8/4 180 м
[Cu Sc Ac trans Ci fib]
+23.8 +22.3 91 +31 +31 очень
душно
1010.8 999.2 12
03 14.10 В 2 4000 м дымка 4/3 450 м
[Sc Ac trans]
+25.8 +23.2 86 +35 +37 очень
душно
1013.1 1001.5 +23.0 +32.1 12
06 14.10 штиль 0 4000 м 4/3 450 м
[Sc Ci fib]
+30.0 +24.3 72 +42 +58 опасность
перегрева
1012.7 1001.3
09 14.10 З 5 4000 м мгла 5/1 450 м
[Cu Sc Ci fib]
+31.2 +23.7 64 +42 +49 опасность
перегрева
1009.5 998.2
12 14.10 В 2 4000 м гроза без осадков 9/3 450 м
[Cb cap Ac trans Ci fib]
+28.6 +24.3 78 +40 +41 очень
душно
1010.5 999.1 +32.0
15 14.10 В 2 4000 м в посл. час дождь {гроза} 9/3 450 м
[Cb cap Ac trans Ci fib]
+24.2 +22.1 88 +31 +31 очень
душно
1012.0 1000.4 1
18 14.10 В 3 4000 м дымка {гроза, дождь} 9/3 90 м
[St Ac trans Ci fib]
+23.8 +22.3 91 +31 +31 очень
душно
1012.2 1000.6 1
21 14.10 В 3 4000 м дымка 8/3 180 м
[St Ac trans Ci fib]
+24.0 +21.6 86 +31 +31 очень
душно
1011.1 999.6 1
00 15.10 В 3 4000 м зарница 9/3 180 м
[Cb cap Ac trans Ci fib]
+24.2 +22.4 90 +32 +32 очень
душно
1011.5 999.9 1
03 15.10 ЮВ 2 4000 м гроза, ливневой дождь 10/3 100 м
[Cb cap Ac As Ci fib]
+23.6 +22.1 91 +30 +32 очень
душно
1013.6 1002.0 +23.0 +32.0 2
06 15.10 штиль 0 4000 м слабая морось {гроза, дождь} 10/3 240 м
[Frnb Ac As]
+25.0 +23.5 91 +34 +39 очень
душно
1014.0 1002.4 1
09 15.10 штиль 0 4000 м {морось} 5/3 450 м
[Sc Ci fib]
+29.6 +25.9 81 +44 +57 опасность
перегрева
1009.9 998.5 1
12 15.10 З 3 4000 м {морось} 8/3 450 м
[Sc Ac trans Ci fib]
+27.4 +23.6 80 +37 +38 очень
душно
1009.8 998.3 +30.4 1
15 15.10 Ю 2 4000 м 8/3 450 м
[Sc Ac trans Ci fib]
+26.4 +24.1 87 +37 +37 очень
душно
1011.6 1000.1 1
18 15.10 штиль 0 4000 м 6/3 450 м
[Sc Ac trans Ci fib]
+26.2 +24.2 89 +36 +36 очень
душно
1012.5 1001.0 1
21 15.10 штиль 0 4000 м дымка 8/3 360 м
[Sc Ac trans Ci fib]
+25.6 +24.1 91 +35 +35 очень
душно
1010.9 999.3 1
00 16.10 штиль 0 2000 м дымка 8/3 180 м
[Sc Ac trans Ci fib]
+25.2 +24.0 93 +35 +35 очень
душно
1010.9 999.3 1
03 16.10 штиль 0 2000 м дымка {туман} 8/4 240 м
[St Ci fib]
+26.6 +24.6 89 +38 +41 очень
душно
1013.5 1001.9 +24.0 +30.4 1
06 16.10 В 2 4000 м {туман} 5/4 450 м
[Cu Sc Ci fib]
+30.6 +26.1 77 +46 +56 опасность
перегрева
1012.4 1001.0
09 16.10 З 4 4000 м дымка 9/5 360 м
[Cu Sc Ac trans Ci fib]
+29.8 +24.7 74 +42 +45 опасность
перегрева
1009.5 998.1
12 16.10 В 3 4000 м гроза, ливневой дождь 10/5 120 м
[Cb cap Ac As]
+23.6 +22.1 91 +30 +31 очень
душно
1010.9 999.3 +31.8 9
15 16.10 В 2 4000 м в посл. час гроза {дождь} 9/4 120 м
[Cb cap Ac As Ci fib]
+23.8 +22.9 95 +32 +32 очень
душно
1013.6 1002.0 10
18 16.10 В 3 2000 м дымка {гроза, дождь} 9/4 90 м
[St Ac trans Ci fib]
+24.0 +23.1 95 +32 +32 очень
душно
1013.6 1002.0 10
21 16.10 ЮВ 3 2000 м дымка 9/3 90 м
[St Ac trans Ci fib]
+23.6 +22.7 95 +31 +31 очень
душно
1012.1 1000.5 10
00 17.10 ЮВ 2 4000 м в посл. час дождь 10/4 90 м
[St Ac As Ci fib]
+23.6 +22.7 95 +31 +31 очень
душно
1012.2 1000.6 12
03 17.10 Ю 2 4000 м дымка 8/3 180 м
[St Ac trans Ci fib]
+25.0 +23.5 91 +34 +35 очень
душно
1013.8 1002.2 +22.8 +31.8 12
06 17.10 Ю 3 10 км 9/6 360 м
[Cu Sc Ac trans Ci fib]
+29.0 +23.2 71 +39 +43 очень
душно
1013.2 1001.8
09 17.10 З 3 10 км 8/5 450 м
[Cb cap Ci fib]
+29.0 +24.4 76 +41 +46 опасность
перегрева
1009.7 998.3
12 17.10 З 3 4000 м 9/5 450 м
[Cb cap Ci fib]
+28.2 +23.2 74 +38 +38 очень
душно
1009.6 998.2 +29.9
15 17.10 штиль 0 4000 м зарница 9/4 450 м
[Cb cap Ac trans Ci fib]
+26.0 +23.1 84 +35 +35 очень
душно
1012.3 1000.7

 

Местоположение метеостанции Mangalore Airport (Karnataka, Индия): широта 12.92 долгота 74.88 высота над уровнем моря 102 м.

В архиве по умолчанию представлена погода в Mangalore Airport за последнюю неделю. Архивные данные за месяц целиком и за предыдущие месяцы, начиная с января 2011 года, Вы можете получить, выбрав интересующий диапазон дат из раскрывающегося списка и нажав кнопку "Ввод!".


*Определитесь, кто Вы:
робот инопланетянин человек

Внимание! Время в таблицах - всемирное. Для получения местного времени необходимо прибавить поправку, которая в Mangalore Airport равна 5.5 ч.

Смотрите также архив погоды в соседних городах и на ближайших метеорологических станциях:

Погода в Mangalore (Karnataka, Индия) (6 км)
Погода в Agumbe Emo (Karnataka, Индия) (68 км)
Погода в Chickmagalur (Karnataka, Индия) (101 км)
Погода в Madikeri (Karnataka, Индия) (108 км)
Погода в Cannanore (Kerala, Индия) (131 км)
Погода в Shirali (Karnataka, Индия) (133 км)
Погода в Shimoga (Karnataka, Индия) (139 км)
Погода в Hassan (Karnataka, Индия) (157 км)
Погода в Honavar (Karnataka, Индия) (158 км)
Погода в Davangere (Karnataka, Индия) (209 км)

Пояснения к столбцам:

Ветер - указаны скорость ветра в м/с - средняя за 10 мин, порывы в срок и между сроками (в фигурных скобках) и направление, откуда дует ветер: С - северный, СВ - северо-восточный, В - восточный, ЮВ - юго-восточный, Ю - южный, ЮЗ - юго-западный, З - западный, СЗ - северо-западный.
Видимость - горизонтальная дальность видимости в метрах или километрах. При видимости от 1 до 10 км при отсутствии осадков обычно наблюдается дымка, при ухудшении видимости до 1 км и менее - туман. В сухую погоду видимость может ухудшаться дымом, пылью или мглою.
Явления - указаны атмосферные явления, наблюдавшиеся в срок или в последний час перед сроком; фигурными скобками обозначены явления, наблюдавшиеся между сроками (за 1-3 часа до срока); квадратными скобками обозначены град или гололедные отложения с указанием их диаметра в мм.
Облачность - указаны через наклонную черту общая и нижняя облачность в баллах и высота нижней границы облаков в метрах; квадратными скобками обозначены формы облаков: Ci - перистые, Cs - перисто-слоистые, Cc - перисто-кучевые, Ac - высококучевые, As - высокослоистые, Sc - слоисто-кучевые, Ns - слоисто-дождевые, Cu - кучевые, Cb - кучево-дождевые. Подробнее классификацию облаков см. в Атласе облаков (PDF).
T - Температура воздуха - температура, измеренная на высоте 2 м над землей.
Td - Температура точки росы - температура, при понижении до которой содержащийся в воздухе водяной пар достигнет насыщения.
f - Относительная влажность воздуха - влажноcть воздуха, измеренная на высоте 2 м над землей.
Te - Эффективная температура - температура, которую ощущает одетый по сезону человек в тени. Характеристика душности погоды. При расчете учитывается влияние влажности воздуха и скорости ветра на теплоощущения человека.
Tes - Эффективная температура на солнце - температура, которую ощущает человек, с поправкой на солнечный нагрев. Характеристика знойности погоды. Зависит от высоты солнца над горизонтом, облачности и скорости ветра. Ночью, в пасмурную погоду, а также при ветре 12 м/с и более поправка равна нулю.
P - Атмосферное давление - приведенное к уровню моря атмосферное давление.
Po - Атмосферное давление - измеренное на уровне метеостанции атмосферное давление.
Tmin - Минимальная температура - минимум температуры воздуха на высоте 2 м над землей.
Tmax - Максимальная температура - максимум температуры воздуха на высоте 2 м над землей.
R - Количество осадков - Количество выпавших осадков за период времени, мм. При наведении курсора мыши на число - период времени, за который выпало указанное количество осадков.
R24 - Количество осадков - Количество выпавших осадков за 24 часа, мм.
S - Снежный покров - Высота снежного покрова, см. При наведении курсора мыши на число - состояние снежного покрова и степень покрытия местности в баллах.